This is the latest recevied weather packets stored in our database for station/object KD9JB-1. If no packets are shown the sender has not sent any weather packets the latest 10 day(s).
| Time | Temp. | Humidity | Pressure | Rain* | Wind** | Luminosity | Snow |
|---|---|---|---|---|---|---|---|
| 1777563707 | 14.44° C | 45% | 1018.6 hPa | 0 mm | - | - | - |
| 1777563407 | 14.44° C | 46% | 1018.6 hPa | 0 mm | - | - | - |
| 1777563108 | 14.44° C | 47% | 1018.5 hPa | 0 mm | - | - | - |
| 1777562807 | 14.44° C | 47% | 1018.5 hPa | 0 mm | - | - | - |
| 1777562507 | 14.44° C | 46% | 1018.5 hPa | 0 mm | - | - | - |
| 1777562208 | 14.44° C | 48% | 1018.4 hPa | 0 mm | - | - | - |
| 1777561908 | 14.44° C | 49% | 1018.5 hPa | 0 mm | - | - | - |
| 1777561608 | 13.89° C | 51% | 1018.3 hPa | 0 mm | - | - | - |
| 1777561308 | 13.89° C | 46% | 1018.5 hPa | 0 mm | - | - | - |
| 1777561008 | 13.33° C | 47% | 1018.6 hPa | 0 mm | - | - | - |
| 1777560708 | 13.33° C | 50% | 1018.7 hPa | 0 mm | - | - | - |
| 1777560408 | 13.33° C | 49% | 1018.7 hPa | 0 mm | - | - | - |
| 1777560108 | 13.33° C | 51% | 1018.7 hPa | 0 mm | - | - | - |
| 1777559808 | 12.78° C | 53% | 1018.7 hPa | 0 mm | - | - | - |
| 1777559508 | 12.78° C | 53% | 1018.7 hPa | 0 mm | - | - | - |
| 1777559208 | 12.22° C | 55% | 1018.7 hPa | 0 mm | - | - | - |
| 1777558908 | 12.22° C | 56% | 1018.6 hPa | 0 mm | - | - | - |
| 1777558608 | 11.67° C | 56% | 1018.7 hPa | 0 mm | - | - | - |
| 1777558308 | 11.67° C | 59% | 1018.7 hPa | 0 mm | - | - | - |
| 1777558008 | 11.67° C | 61% | 1018.9 hPa | 0 mm | - | - | - |
| 1777557708 | 11.11° C | 60% | 1019 hPa | 0 mm | - | - | - |
| 1777557408 | 11.11° C | 62% | 1019 hPa | 0 mm | - | - | - |
| 1777557108 | 11.11° C | 65% | 1018.8 hPa | 0 mm | - | - | - |
| 1777556808 | 10.56° C | 64% | 1018.8 hPa | 0 mm | - | - | - |
| 1777556508 | 10.56° C | 66% | 1018.8 hPa | 0 mm | - | - | - |
* Rain latest hour (hover to see other rain measurements)
** Current wind speed in m/s (hover to see current wind gust speed)